EW9318 Weather Reports


Display with metric or nautical units.
time (UTC)temp
F
wind
direction
speed
MPH
gust
MPH
rain 1hr
in
rain 24hr
in
rain mn
in
humidity
%
barometer
mb
20260509024517 46 125 1.0 2.0 0.00 0.00 0.00 59 1005.2
20260509024016 46 125 1.0 3.0 0.00 0.00 0.00 58 1005.2
20260509023516 47 125 2.0 4.0 0.00 0.00 0.00 57 1005.2
20260509023016 47 127 2.0 4.0 0.00 0.00 0.00 57 1005.3
20260509022516 47 131 2.0 4.0 0.00 0.00 0.00 56 1005.3
20260509022015 48 130 2.0 4.0 0.00 0.00 0.00 55 1005.3
20260509021536 48 131 1.0 3.0 0.00 0.00 0.00 52 1005.4
20260509021016 48 132 2.0 3.0 0.00 0.00 0.00 52 1005.4
20260509020516 49 137 2.0 3.0 0.00 0.00 0.00 53 1005.4
20260509020015 49 138 2.0 3.0 0.00 0.00 0.00 51 1005.3
20260509015517 49 138 1.0 2.0 0.00 0.00 0.00 50 1005.3
20260509015015 50 137 0.0 2.0 0.00 0.00 0.00 49 1005.3
20260509014517 50 138 1.0 3.0 0.00 0.00 0.00 49 1005.3
20260509014015 51 138 1.0 3.0 0.00 0.00 0.00 49 1005.2
20260509013517 51 138 1.0 2.0 0.00 0.00 0.00 47 1005.2
20260509013016 52 138 1.0 3.0 0.00 0.00 0.00 46 1005.1
20260509012516 52 137 2.0 3.0 0.00 0.00 0.00 42 1005.2
20260509012016 53 137 2.0 3.0 0.00 0.00 0.00 44 1005.1
20260509011535 53 237 1.0 3.0 0.00 0.00 0.00 43 1005.1
20260509011015 54 266 1.0 3.0 0.00 0.00 0.00 40 1005.1
20260509010515 55 266 1.0 3.0 0.00 0.00 0.00 39 1005.1
20260509010016 56 266 1.0 2.0 0.00 0.00 0.00 37 1005.2
20260509005516 57 266 1.0 2.0 0.00 0.00 0.00 35 1005.1
20260509005015 57 266 1.0 2.0 0.00 0.00 0.00 33 1005.1
20260509004517 58 266 1.0 2.0 0.00 0.00 0.00 32 1005.1
20260509004017 58 266 0.0 2.0 0.00 0.00 0.00 31 1005.1
20260509003515 59 0.0 2.0 0.00 0.00 0.00 33 1005.1
20260509003015 59 277 0.0 2.0 0.00 0.00 0.00 33 1005.1
20260509002515 60 306 0.0 3.0 0.00 0.00 0.00 30 1005.1
20260509002015 60 304 1.0 6.0 0.00 0.00 0.00 26 1005.2
20260509001515 60 264 2.0 6.0 0.00 0.00 0.00 25 1005.1
20260509001015 60 262 1.0 4.0 0.00 0.00 0.00 25 1005.2
20260509000515 60 266 2.0 6.0 0.00 0.00 0.00 26 1005.2
20260509000015 60 296 3.0 7.0 0.00 0.00 0.00 25 1005.2
20260508235516 60 294 4.0 8.0 0.00 0.00 0.00 24 1005.2
20260508235015 60 300 4.0 8.0 0.00 0.00 0.00 24 1005.3
20260508234515 60 299 4.0 10.0 0.00 0.00 0.00 24 1005.4
20260508234036 60 301 7.0 11.0 0.00 0.00 0.00 24 1005.5
20260508233515 60 309 6.0 11.0 0.00 0.00 0.00 24 1005.5
20260508233036 61 297 6.0 10.0 0.00 0.00 0.00 24 1005.5
20260508232537 61 295 5.0 12.0 0.00 0.00 0.00 24 1005.5
20260508232015 61 303 8.0 12.0 0.00 0.00 0.00 23 1005.4
20260508231535 61 299 7.0 12.0 0.00 0.00 0.00 24 1005.5
20260508231015 61 308 7.0 13.0 0.00 0.00 0.00 24 1005.4
20260508230515 61 299 8.0 13.0 0.00 0.00 0.00 23 1005.4
20260508230015 61 312 8.0 16.0 0.00 0.00 0.00 24 1005.5
20260508225515 61 316 8.0 16.0 0.00 0.00 0.00 22 1005.5
20260508225015 62 299 7.0 11.0 0.00 0.00 0.00 23 1005.4
20260508224515 62 313 7.0 14.0 0.00 0.00 0.00 22 1005.4
20260508224015 61 307 9.0 14.0 0.00 0.00 0.00 23 1005.5
20260508223515 62 287 8.0 14.0 0.00 0.00 0.00 21 1005.5
20260508223015 61 306 7.0 14.0 0.00 0.00 0.00 21 1005.5
20260508222516 62 310 9.0 14.0 0.00 0.00 0.00 22 1005.5
20260508222015 62 298 7.0 16.0 0.00 0.00 0.00 21 1005.6
20260508221515 61 321 10.0 16.0 0.00 0.00 0.00 22 1005.6
20260508221015 62 319 10.0 16.0 0.00 0.00 0.00 21 1005.6
20260508220516 62 303 9.0 14.0 0.00 0.00 0.00 23 1005.7
20260508220015 62 298 8.0 15.0 0.00 0.00 0.00 22 1005.6
20260508215516 62 304 9.0 15.0 0.00 0.00 0.00 21 1005.6
20260508215015 62 303 8.0 15.0 0.00 0.00 0.00 23 1005.7
20260508214515 62 301 10.0 16.0 0.00 0.00 0.00 23 1005.6
20260508214015 62 301 9.0 16.0 0.00 0.00 0.00 22 1005.6
20260508213515 62 324 9.0 14.0 0.00 0.00 0.00 24 1005.6
20260508213016 61 327 10.0 15.0 0.00 0.00 0.00 24 1005.6
20260508212516 61 298 8.0 18.0 0.00 0.00 0.00 21 1005.6
20260508212015 61 304 10.0 18.0 0.00 0.00 0.00 22 1005.8
20260508211515 61 303 11.0 17.0 0.00 0.00 0.00 23 1005.8
20260508211015 62 297 10.0 17.0 0.00 0.00 0.00 23 1005.8
20260508210515 62 263 8.0 16.0 0.00 0.00 0.00 24 1005.8
20260508210015 62 272 11.0 16.0 0.00 0.00 0.00 22 1005.8
20260508205515 62 274 7.0 15.0 0.00 0.00 0.00 23 1005.9
20260508205015 62 263 9.0 15.0 0.00 0.00 0.00 23 1005.9
20260508204516 62 247 10.0 16.0 0.00 0.00 0.00 24 1005.9
20260508204015 62 295 8.0 17.0 0.00 0.00 0.00 23 1006.1
20260508203515 62 288 11.0 17.0 0.00 0.00 0.00 23 1006.2
20260508203015 62 252 10.0 16.0 0.00 0.00 0.00 23 1006.3
20260508202515 61 240 10.0 18.0 0.00 0.00 0.00 23 1006.2
20260508202015 61 274 12.0 18.0 0.00 0.00 0.00 22 1006.4
20260508201515 61 257 9.0 17.0 0.00 0.00 0.00 25 1006.4
20260508201015 61 262 11.0 17.0 0.00 0.00 0.00 21 1006.5
20260508200538 62 270 11.0 17.0 0.00 0.00 0.00 24 1006.6
20260508200037 62 268 11.0 17.0 0.00 0.00 0.00 23 1006.6
20260508195517 62 271 9.0 15.0 0.00 0.00 0.00 25 1006.6
20260508195017 62 245 10.0 18.0 0.00 0.00 0.00 27 1006.7
20260508194517 61 250 10.0 19.0 0.00 0.00 0.00 24 1006.7
20260508194017 62 243 11.0 19.0 0.00 0.00 0.00 25 1006.8
20260508193518 62 230 11.0 17.0 0.00 0.00 0.00 25 1006.8
20260508193018 62 248 9.0 17.0 0.00 0.00 0.00 24 1006.8
20260508192517 62 269 9.0 17.0 0.00 0.00 0.00 25 1006.8
20260508192017 62 242 10.0 17.0 0.00 0.00 0.00 26 1006.8
20260508191518 62 271 9.0 15.0 0.00 0.00 0.00 27 1007.0
20260508191036 62 229 7.0 14.0 0.00 0.00 0.00 27 1007.0
20260508190517 61 269 8.0 16.0 0.00 0.00 0.00 25 1007.1
20260508190017 61 255 8.0 16.0 0.00 0.00 0.00 26 1007.1
20260508185517 62 261 10.0 17.0 0.00 0.00 0.00 25 1007.2
20260508185017 62 258 10.0 17.0 0.00 0.00 0.00 27 1007.2
20260508184518 61 284 9.0 17.0 0.00 0.00 0.00 24 1007.2
20260508184037 61 256 10.0 17.0 0.00 0.00 0.00 28 1007.2
20260508183517 61 285 6.0 19.0 0.00 0.00 0.00 26 1007.3
20260508183017 61 261 11.0 20.0 0.00 0.00 0.00 24 1007.4
20260508182517 61 228 10.0 20.0 0.00 0.00 0.00 27 1007.3
20260508182017 61 244 11.0 21.0 0.00 0.00 0.00 26 1007.4
20260508181517 61 244 11.0 21.0 0.00 0.00 0.00 28 1007.5
20260508181017 61 253 11.0 18.0 0.00 0.00 0.00 26 1007.6
20260508180515 61 262 10.0 18.0 0.00 0.00 0.00 25 1007.6
20260508180038 61 268 9.0 18.0 0.00 0.00 0.00 25 1007.6
20260508175517 61 285 10.0 19.0 0.00 0.00 0.00 25 1007.7
20260508175017 61 309 11.0 19.0 0.00 0.00 0.00 26 1007.7
20260508174517 61 278 8.0 15.0 0.00 0.00 0.00 28 1007.8
20260508174017 61 279 9.0 15.0 0.00 0.00 0.00 27 1008.0
20260508173517 61 252 7.0 17.0 0.00 0.00 0.00 27 1008.0
20260508173016 60 271 9.0 17.0 0.00 0.00 0.00 24 1008.1
20260508172517 60 296 9.0 15.0 0.00 0.00 0.00 27 1008.1
20260508172018 60 281 8.0 13.0 0.00 0.00 0.00 30 1008.1
20260508171517 60 281 6.0 12.0 0.00 0.00 0.00 27 1008.2
20260508171017 60 297 4.0 15.0 0.00 0.00 0.00 31 1008.3
20260508170517 61 276 8.0 15.0 0.00 0.00 0.00 31 1008.4
20260508170018 61 203 3.0 8.0 0.00 0.00 0.00 32 1008.5
20260508165516 60 103 2.0 11.0 0.00 0.00 0.00 33 1008.5
20260508165017 60 171 4.0 13.0 0.00 0.00 0.00 35 1008.7
20260508164516 60 216 6.0 13.0 0.00 0.00 0.00 35 1008.7
20260508164016 59 260 3.0 13.0 0.00 0.00 0.00 36 1008.8
20260508163517 59 287 2.0 9.0 0.00 0.00 0.00 35 1008.9
20260508163018 58 332 2.0 11.0 0.00 0.00 0.00 36 1009.1
20260508162536 58 315 5.0 11.0 0.00 0.00 0.00 38 1009.0
20260508162016 58 323 2.0 10.0 0.00 0.00 0.00 40 1009.1
20260508161536 58 310 5.0 10.0 0.00 0.00 0.00 38 1009.2
20260508161017 58 46 1.0 4.0 0.00 0.00 0.00 40 1009.2
20260508160516 57 13 2.0 5.0 0.00 0.00 0.00 42 1009.3
20260508160016 57 333 2.0 5.0 0.00 0.00 0.00 40 1009.3
20260508155516 57 10 2.0 5.0 0.00 0.00 0.00 44 1009.4
20260508155036 57 267 2.0 5.0 0.00 0.00 0.00 46 1009.3
20260508154516 56 260 2.0 12.0 0.00 0.00 0.00 43 1009.4
20260508154017 56 236 7.0 12.0 0.00 0.00 0.00 42 1009.3
20260508153536 57 244 4.0 10.0 0.00 0.00 0.00 43 1009.2
20260508153016 57 237 4.0 9.0 0.00 0.00 0.00 42 1009.2
20260508152558 57 207 3.0 9.0 0.00 0.00 0.00 48 1009.3
20260508152036 56 4 4.0 10.0 0.00 0.00 0.00 46 1009.3
20260508151517 56 347 4.0 10.0 0.00 0.00 0.00 46 1009.4
20260508151016 56 190 2.0 9.0 0.00 0.00 0.00 47 1009.5
20260508150518 56 259 4.0 9.0 0.00 0.00 0.00 44 1009.4
20260508150016 56 324 2.0 7.0 0.00 0.00 0.00 46 1009.6
20260508145516 56 245 3.0 7.0 0.00 0.00 0.00 46 1009.7
20260508145016 56 171 3.0 7.0 0.00 0.00 0.00 50 1009.7
20260508144516 56 235 1.0 5.0 0.00 0.00 0.00 53 1009.8
20260508144037 55 144 1.0 5.0 0.00 0.00 0.00 54 1009.9
20260508143516 55 200 2.0 5.0 0.00 0.00 0.00 53 1009.9
20260508143016 55 318 0.0 2.0 0.00 0.00 0.00 57 1009.9
20260508142516 54 343 0.0 2.0 0.00 0.00 0.00 61 1009.8
20260508142016 54 5 0.0 2.0 0.00 0.00 0.00 61 1009.9
20260508141516 54 331 0.0 2.0 0.00 0.00 0.00 65 1009.9
20260508141038 53 159 0.0 2.0 0.00 0.00 0.00 68 1010.0
20260508140518 52 254 0.0 3.0 0.00 0.00 0.00 71 1010.1
20260508140036 52 259 0.0 3.0 0.00 0.00 0.00 74 1010.1
20260508135516 52 0.0 3.0 0.00 0.00 0.00 76 1010.3
20260508135016 51 69 0.0 3.0 0.00 0.00 0.00 79 1010.3
20260508134516 51 128 0.0 2.0 0.00 0.00 0.00 81 1010.3
20260508134038 50 187 0.0 2.0 0.00 0.00 0.00 83 1010.2
20260508133516 49 210 0.0 4.0 0.00 0.00 0.00 84 1010.2
20260508133016 49 174 1.0 5.0 0.00 0.00 0.00 88 1010.1
20260508132516 48 160 2.0 5.0 0.00 0.00 0.00 88 1010.2
20260508132016 47 169 1.0 5.0 0.00 0.00 0.00 90 1010.3
20260508131517 47 185 1.0 4.0 0.00 0.00 0.00 91 1010.4
20260508131016 46 194 1.0 3.0 0.00 0.00 0.00 92 1010.5
20260508130518 45 190 0.0 2.0 0.00 0.00 0.00 93 1010.5
20260508130036 44 175 0.0 3.0 0.00 0.00 0.00 93 1010.5
20260508125517 44 199 1.0 3.0 0.00 0.00 0.00 93 1010.4
20260508125017 43 216 1.0 3.0 0.00 0.00 0.00 93 1010.5
20260508124536 43 214 0.0 3.0 0.00 0.00 0.00 94 1010.5
20260508124017 43 185 1.0 3.0 0.00 0.00 0.00 94 1010.6
20260508123517 42 184 0.0 3.0 0.00 0.00 0.00 94 1010.5
20260508123016 41 182 0.0 3.0 0.00 0.00 0.00 94 1010.4
20260508122516 41 192 0.0 3.0 0.00 0.00 0.00 94 1010.3
20260508122016 40 179 0.0 3.0 0.00 0.00 0.00 94 1010.2
20260508121536 40 193 1.0 3.0 0.00 0.00 0.00 94 1010.2
20260508121016 39 196 0.0 3.0 0.00 0.00 0.00 94 1010.2
20260508120516 38 0.0 0.0 0.00 0.00 0.00 94 1010.2
20260508120016 37 0.0 0.0 0.00 0.00 0.00 94 1010.0
20260508115536 37 0.0 0.0 0.00 0.00 0.00 94 1009.9
20260508115016 36 0.0 0.0 0.00 0.00 0.00 93 1009.8
20260508114538 36 0.0 0.0 0.00 0.00 0.00 93 1009.8
20260508114037 35 0.0 0.0 0.00 0.00 0.00 93 1009.8
20260508113516 35 0.0 0.0 0.00 0.00 0.00 94 1009.7
20260508113017 34 0.0 0.0 0.00 0.00 0.00 93 1009.6
20260508112536 33 0.0 0.0 0.00 0.00 0.00 93 1009.6
20260508112016 33 0.0 0.0 0.00 0.00 0.00 93 1009.6
20260508111516 33 0.0 0.0 0.00 0.00 0.00 93 1009.6
20260508111016 33 0.0 0.0 0.00 0.00 0.00 92 1009.6
20260508110517 32 0.0 0.0 0.00 0.00 0.00 92 1009.4
20260508110017 32 0.0 0.0 0.00 0.00 0.00 92 1009.3
20260508105516 33 0.0 0.0 0.00 0.00 0.00 92 1009.4
20260508105036 33 0.0 0.0 0.00 0.00 0.00 92 1009.4
20260508104516 33 0.0 0.0 0.00 0.00 0.00 92 1009.4
20260508104017 33 0.0 0.0 0.00 0.00 0.00 92 1009.3
20260508103517 33 0.0 0.0 0.00 0.00 0.00 92 1009.4
20260508103016 33 0.0 0.0 0.00 0.00 0.00 92 1009.4
20260508102516 33 0.0 0.0 0.00 0.00 0.00 92 1009.3
20260508102017 33 0.0 1.0 0.00 0.00 0.00 91 1009.2
20260508101517 33 102 0.0 2.0 0.00 0.00 0.00 92 1009.3
20260508101016 33 102 1.0 2.0 0.00 0.00 0.00 92 1009.2
20260508100516 33 102 1.0 2.0 0.00 0.00 0.00 92 1009.3
20260508100017 33 102 0.0 1.0 0.00 0.00 0.00 92 1009.3
20260508095516 33 0.0 0.0 0.00 0.00 0.00 92 1009.3
20260508095016 34 0.0 0.0 0.00 0.00 0.00 92 1009.4
20260508094536 34 0.0 0.0 0.00 0.00 0.00 91 1009.4
20260508094016 34 0.0 1.0 0.00 0.00 0.00 91 1009.5
20260508093537 34 102 0.0 2.0 0.00 0.00 0.00 91 1009.4
20260508093016 34 102 0.0 2.0 0.00 0.00 0.00 91 1009.4
20260508092516 34 102 0.0 2.0 0.00 0.00 0.00 91 1009.4
20260508092016 34 0.0 0.0 0.00 0.00 0.00 91 1009.3
20260508091515 34 0.0 0.0 0.00 0.00 0.00 91 1009.3
20260508091017 34 0.0 0.0 0.00 0.00 0.00 91 1009.3
20260508090517 34 0.0 0.0 0.00 0.00 0.00 91 1009.4
20260508090017 34 0.0 0.0 0.00 0.00 0.00 91 1009.4
20260508085516 35 0.0 0.0 0.00 0.00 0.00 91 1009.5
20260508085059 35 0.0 0.0 0.00 0.00 0.00 91 1009.6
20260508084537 35 0.0 0.0 0.00 0.00 0.00 91 1009.6
20260508084015 35 0.0 0.0 0.00 0.00 0.00 91 1009.6
20260508083516 35 0.0 0.0 0.00 0.00 0.00 91 1009.5
20260508083036 35 0.0 0.0 0.00 0.00 0.00 91 1009.4
20260508082515 35 0.0 0.0 0.00 0.00 0.00 90 1009.5
20260508082017 35 0.0 0.0 0.00 0.00 0.00 90 1009.5
20260508081516 35 0.0 0.0 0.00 0.00 0.00 91 1009.6
20260508081016 35 0.0 0.0 0.00 0.00 0.00 90 1009.6
20260508080517 35 0.0 0.0 0.00 0.00 0.00 90 1009.6
20260508080015 35 0.0 1.0 0.00 0.00 0.00 90 1009.7
20260508075517 35 102 0.0 2.0 0.00 0.00 0.00 90 1009.6
20260508075015 36 102 0.0 3.0 0.00 0.00 0.00 90 1009.6
20260508074517 36 101 1.0 3.0 0.00 0.00 0.00 90 1009.7
20260508074016 36 0.0 0.0 0.00 0.00 0.00 90 1009.7
20260508073515 36 0.0 0.0 0.00 0.00 0.00 90 1009.7
20260508073037 36 0.0 0.0 0.00 0.00 0.00 89 1009.8
20260508072515 36 0.0 0.0 0.00 0.00 0.00 89 1009.8
20260508072016 36 0.0 0.0 0.00 0.00 0.00 89 1009.8
20260508071557 36 0.0 0.0 0.00 0.00 0.00 89 1009.8
20260508071017 37 0.0 0.0 0.00 0.00 0.00 89 1009.7
20260508070556 37 0.0 0.0 0.00 0.00 0.00 89 1009.8
20260508070015 37 0.0 0.0 0.00 0.00 0.00 89 1009.8
20260508065515 37 0.0 0.0 0.00 0.00 0.00 89 1009.9
20260508065015 37 0.0 0.0 0.00 0.00 0.00 89 1010.0
20260508064515 37 0.0 0.0 0.00 0.00 0.00 89 1010.1
20260508064015 37 0.0 0.0 0.00 0.00 0.00 89 1010.1
20260508063515 37 0.0 0.0 0.00 0.00 0.00 88 1010.2
20260508063057 37 0.0 0.0 0.00 0.00 0.00 88 1010.2
20260508062515 38 0.0 0.0 0.00 0.00 0.00 88 1010.3
20260508062035 38 0.0 0.0 0.00 0.00 0.00 88 1010.3
20260508061517 38 0.0 0.0 0.00 0.00 0.00 87 1010.4
20260508061015 38 0.0 0.0 0.00 0.00 0.00 87 1010.4
20260508060536 38 0.0 0.0 0.00 0.00 0.00 87 1010.4
20260508060015 38 0.0 0.0 0.00 0.00 0.00 86 1010.4
20260508055515 38 0.0 0.0 0.00 0.00 0.00 86 1010.4
20260508055016 38 0.0 0.0 0.00 0.00 0.00 86 1010.3
20260508054515 39 0.0 0.0 0.00 0.00 0.00 85 1010.4
20260508054015 39 0.0 0.0 0.00 0.00 0.00 85 1010.3
20260508053515 39 0.0 0.0 0.00 0.00 0.00 85 1010.3
20260508053015 39 0.0 0.0 0.00 0.00 0.00 85 1010.2
20260508052515 39 0.0 0.0 0.00 0.00 0.00 85 1010.2
20260508052015 40 0.0 0.0 0.00 0.00 0.00 85 1010.2
20260508051515 40 0.0 0.0 0.00 0.00 0.00 84 1010.2
20260508051015 40 0.0 0.0 0.00 0.00 0.00 84 1010.2
20260508050515 40 0.0 0.0 0.00 0.00 0.00 84 1010.1
20260508050015 40 0.0 0.0 0.00 0.00 0.00 84 1010.1
20260508045555 40 0.0 0.0 0.00 0.00 0.00 84 1010.2
20260508045015 40 0.0 0.0 0.00 0.00 0.00 83 1010.1
20260508044516 41 0.0 0.0 0.00 0.00 0.00 83 1010.0
20260508044015 41 0.0 0.0 0.00 0.00 0.00 83 1009.9
20260508043515 41 0.0 0.0 0.00 0.00 0.00 82 1009.9
20260508043015 41 0.0 0.0 0.00 0.00 0.00 82 1009.9
20260508042535 41 0.0 0.0 0.00 0.00 0.00 82 1009.9
20260508042015 41 0.0 0.0 0.00 0.00 0.00 82 1009.8
20260508041515 42 0.0 0.0 0.00 0.00 0.00 81 1009.8
20260508041015 42 0.0 0.0 0.00 0.00 0.00 81 1009.8
20260508040517 42 0.0 0.0 0.00 0.00 0.00 81 1009.8
20260508040016 42 0.0 0.0 0.00 0.00 0.00 81 1009.7
20260508035516 42 0.0 0.0 0.00 0.00 0.00 80 1009.7
20260508035037 43 0.0 0.0 0.00 0.00 0.00 80 1009.7
20260508034515 43 0.0 0.0 0.00 0.00 0.00 80 1009.7
20260508034035 43 0.0 0.0 0.00 0.00 0.00 79 1009.6
20260508033515 43 0.0 0.0 0.00 0.00 0.00 79 1009.7
20260508033017 43 0.0 0.0 0.00 0.00 0.00 78 1009.7
20260508032516 43 0.0 0.0 0.00 0.00 0.00 77 1009.6
20260508032015 43 0.0 0.0 0.00 0.00 0.00 76 1009.8
20260508031515 43 0.0 0.0 0.00 0.00 0.00 76 1009.8
20260508031015 44 0.0 0.0 0.00 0.00 0.00 75 1009.9
20260508030517 44 0.0 0.0 0.00 0.00 0.00 74 1009.9
20260508030016 44 0.0 0.0 0.00 0.00 0.00 74 1009.8
20260508025515 44 0.0 0.0 0.00 0.00 0.00 73 1009.7
20260508025015 44 0.0 0.0 0.00 0.00 0.00 73 1009.7
20260508024536 45 0.0 0.0 0.00 0.00 0.00 72 1009.7